Weather Roundup
Issued by NWS Chicago, IL

Home | Current Version | Previous Version | Text Only | Print | Product List | Glossary Off
Versions: 1 2 3 4 5 6 7 8 9 10 11 12 13 14 15 16 17 18 19 20 21 22 23 24 25 26 27 28 29 30 31 32 33 34 35 36 37 38 39 40 41 42 43 44 45 46 47 48 49 50

000
NZUS59 KLOT 221908
HRRLOT

CHICAGO AREA WEATHER ROUNDUP
NATIONAL WEATHER SERVICE CHICAGO/ROMEOVILLE IL
200 PM CDT TUE AUG 22 2017

NOTE: "FAIR" INDICATES FEW OR NO CLOUDS BELOW 12,000 FEET WITH NO
SIGNIFICANT WEATHER AND/OR OBSTRUCTIONS TO VISIBILITY.

* THESE STATIONS ARE NOT UNDER NWS QUALITY CONTROL. THEY ALSO MAY NOT
  REPORT WEATHER SUCH AS PRECIPITATION OR FOG.

ILZ005-006-012>014-019>023-222000-
NORTHEAST ILLINOIS

CITY           SKY/WX    TMP DP  RH WIND       PRES   REMARKS
OHARE          PTSUNNY   78  55  44 NW21      29.90R
MIDWAY         PTSUNNY   79  62  56 NW16      29.90S HX  80
AURORA         MOSUNNY   77  61  57 NW14G22   29.93S
LANSING*       PTSUNNY   78  60  53 W12G22    29.91S HX  80
JOLIET*        PTSUNNY   78  65  63 NW9       29.93S HX  80
WAUKEGAN       MOSUNNY   77  56  48 NW12G18   29.89R
DUPAGE AIRPORT MOSUNNY   78  58  49 NW17G26   29.92R
WHEELING       MOSUNNY   80  58  46 NW16      29.91R HX  80
MORRIS*        MOSUNNY   76  64  67 NW13      29.93S
LEWIS AIRPORT* PTSUNNY   75  62  63 NW13G20   29.92S
NORTHERLY ISL    N/A     77  59  53 W7          N/A
$$

WIZ051-052-058>065-066-070>072-222000-
SOUTHEAST WISCONSIN

CITY           SKY/WX    TMP DP  RH WIND       PRES   REMARKS
MILWAUKEE      MOSUNNY   79  50  36 NW17G28   29.89R
KENOSHA*       MOSUNNY   78  54  43 NW15G23   29.90R
RACINE*        MOSUNNY   77  56  48 NW14G24   29.90R
WAUKESHA       SUNNY     73  48  40 W21       29.92R
WEST BEND      MOSUNNY   72  50  46 NW10G23   29.90R
$$

INZ001>003-010>013-019-020-222000-
NORTHWEST INDIANA

CITY           SKY/WX    TMP DP  RH WIND       PRES   REMARKS
GARY*          PTSUNNY   79  61  53 W8        29.91R HX  80
MICHIGAN CITY* NOT AVBL
RENSSELAER*    NOT AVBL
VALPARAISO     PTSUNNY   78  66  66 W15       29.91S HX  80
$$

LMZ740>746-222000-
SOUTHERN LAKE MICHIGAN

STATION/POSITION TIME  SKY/WX   TEMP WIND        PRES    VSBY
                                AIR  DIR/SP/G
                 (UTC)          (F)  (DEG/KT/KT) (MB)    (MI)
HARRISON CRIB    1810            75  310/ 13/ 14   N/A
BURNHAM HARBOR   NOT AVBL
CALUMET HARBOR   1848            78  280/  7/ 14 1011.9R
BURNS HARBOR     1840            74  300/ 11/ 12 1012.9R
MICHIGAN CITY    1840            73  290/ 14/ 15   N/A
$$

ABBREVIATIONS USED IN REMARKS
   TC - TEMPERATURE IN CELSIUS
  WCI - WIND CHILL INDEX
   HX - HEAT INDEX
  VSB - VISIBILITY
$$




USA.gov is the U.S. government's official web portal to all federal, state and local government web resources and services.